Time,TemperatureF,DewpointF,PressureIn,WindDirection,WindDirectionDegrees,WindSpeedMPH,WindSpeedGustMPH,Humidity,HourlyPrecipIn,Conditions,Clouds,dailyrainin,SoftwareType,DateUTC
2013-02-04 00:03:00,18.0,14.0,30.03,SW,232,5.0,9.0,84,0.00,,,0.00,,2013-02-04 05:03:00,
2013-02-04 00:11:00,18.0,14.0,30.03,SW,232,5.0,9.0,84,0.00,,,0.00,,2013-02-04 05:11:00,
2013-02-04 00:22:00,18.0,14.0,30.03,West,281,5.0,9.0,84,0.00,,,0.00,,2013-02-04 05:22:00,
2013-02-04 00:33:00,18.0,14.0,30.02,West,263,4.0,6.0,85,0.00,,,0.00,,2013-02-04 05:33:00,
2013-02-04 00:42:00,18.0,14.0,30.02,West,263,4.0,6.0,85,0.00,,,0.00,,2013-02-04 05:42:00,
2013-02-04 00:52:00,18.0,14.0,30.02,West,269,4.0,8.0,84,0.00,,,0.00,,2013-02-04 05:52:00,
2013-02-04 01:02:00,18.0,14.0,30.02,WSW,241,4.0,7.0,84,0.00,,,0.00,,2013-02-04 06:02:00,
2013-02-04 01:11:00,18.0,14.0,30.02,WSW,241,4.0,7.0,84,0.00,,,0.00,,2013-02-04 06:11:00,
2013-02-04 01:21:00,17.0,13.0,30.02,WSW,252,3.0,7.0,85,0.00,,,0.00,,2013-02-04 06:21:00,
2013-02-04 01:32:00,17.0,14.0,30.01,WSW,245,4.0,6.0,86,0.00,,,0.00,,2013-02-04 06:32:00,
2013-02-04 01:42:00,17.0,14.0,30.01,WSW,245,4.0,6.0,86,0.00,,,0.00,,2013-02-04 06:42:00,
2013-02-04 01:52:00,18.0,15.0,30.02,SW,235,4.0,8.0,86,0.00,,,0.00,,2013-02-04 06:52:00,
2013-02-04 02:02:00,18.0,15.0,30.02,WSW,246,5.0,8.0,86,0.00,,,0.00,,2013-02-04 07:02:00,
2013-02-04 02:11:00,18.0,15.0,30.02,WSW,240,4.0,7.0,87,0.00,,,0.00,,2013-02-04 07:11:00,
2013-02-04 02:21:00,18.0,15.0,30.02,WSW,240,4.0,7.0,87,0.00,,,0.00,,2013-02-04 07:21:00,
2013-02-04 02:32:00,18.0,15.0,30.01,WSW,247,5.0,9.0,88,0.00,,,0.00,,2013-02-04 07:32:00,
2013-02-04 02:42:00,18.0,15.0,30.01,WSW,247,5.0,9.0,88,0.00,,,0.00,,2013-02-04 07:42:00,
2013-02-04 02:52:00,18.0,15.0,30.01,WSW,254,3.0,7.0,89,0.00,,,0.00,,2013-02-04 07:52:00,
2013-02-04 03:01:00,19.0,16.0,30.01,West,276,4.0,6.0,89,0.00,,,0.00,,2013-02-04 08:01:00,
2013-02-04 03:11:00,19.0,16.0,30.01,West,276,4.0,6.0,89,0.00,,,0.00,,2013-02-04 08:11:00,
2013-02-04 03:21:00,19.0,17.0,30.01,WSW,250,3.0,6.0,90,0.00,,,0.00,,2013-02-04 08:21:00,
2013-02-04 03:32:00,19.0,17.0,30.00,WSW,252,3.0,5.0,90,0.00,,,0.00,,2013-02-04 08:32:00,
2013-02-04 03:42:00,19.0,17.0,30.00,WSW,252,3.0,5.0,90,0.00,,,0.00,,2013-02-04 08:42:00,
2013-02-04 03:52:00,19.0,17.0,30.00,WSW,244,3.0,6.0,91,0.00,,,0.00,,2013-02-04 08:52:00,
2013-02-04 04:02:00,19.0,17.0,30.00,SW,233,2.0,6.0,91,0.00,,,0.00,,2013-02-04 09:02:00,
2013-02-04 04:11:00,19.0,17.0,30.00,SW,233,2.0,6.0,91,0.00,,,0.00,,2013-02-04 09:11:00,
2013-02-04 04:21:00,19.0,17.0,29.99,SW,227,2.0,5.0,91,0.00,,,0.00,,2013-02-04 09:21:00,
2013-02-04 04:32:00,19.0,17.0,29.98,South,177,2.0,4.0,91,0.00,,,0.00,,2013-02-04 09:32:00,
2013-02-04 04:42:00,19.0,17.0,29.98,South,177,2.0,4.0,91,0.00,,,0.00,,2013-02-04 09:42:00,
2013-02-04 04:52:00,19.0,17.0,29.97,SE,145,2.0,4.0,91,0.00,,,0.00,,2013-02-04 09:52:00,
2013-02-04 05:01:00,19.0,17.0,29.96,SE,143,2.0,5.0,92,0.00,,,0.00,,2013-02-04 10:01:00,
2013-02-04 05:11:00,19.0,17.0,29.96,SE,143,2.0,5.0,92,0.00,,,0.00,,2013-02-04 10:11:00,
2013-02-04 05:21:00,19.0,17.0,29.96,SSE,157,2.0,4.0,92,0.00,,,0.00,,2013-02-04 10:21:00,
2013-02-04 05:32:00,19.0,17.0,29.96,SE,142,2.0,4.0,92,0.00,,,0.00,,2013-02-04 10:32:00,
2013-02-04 05:42:00,19.0,17.0,29.96,SE,142,2.0,4.0,92,0.00,,,0.00,,2013-02-04 10:42:00,
2013-02-04 05:52:00,19.0,17.0,29.96,South,171,3.0,5.0,92,0.00,,,0.00,,2013-02-04 10:52:00,
2013-02-04 06:02:00,19.0,17.0,29.95,SE,142,2.0,7.0,92,0.00,,,0.00,,2013-02-04 11:02:00,
2013-02-04 06:11:00,19.0,17.0,29.95,SE,142,2.0,7.0,92,0.00,,,0.00,,2013-02-04 11:11:00,
2013-02-04 06:22:00,19.0,17.0,29.94,ESE,121,3.0,5.0,92,0.00,,,0.00,,2013-02-04 11:22:00,
2013-02-04 06:32:00,19.0,17.0,29.93,SE,140,3.0,6.0,92,0.00,,,0.00,,2013-02-04 11:32:00,
2013-02-04 06:42:00,19.0,17.0,29.93,SE,140,3.0,6.0,92,0.00,,,0.00,,2013-02-04 11:42:00,
2013-02-04 06:52:00,19.0,17.0,29.93,SE,131,3.0,5.0,92,0.00,,,0.00,,2013-02-04 11:52:00,
2013-02-04 07:02:00,19.0,17.0,29.93,SE,140,2.0,4.0,92,0.00,,,0.00,,2013-02-04 12:02:00,
2013-02-04 07:12:00,19.0,17.0,29.93,SE,140,2.0,4.0,92,0.00,,,0.00,,2013-02-04 12:12:00,
2013-02-04 07:22:00,19.0,17.0,29.92,SE,129,2.0,4.0,92,0.00,,,0.00,,2013-02-04 12:22:00,
2013-02-04 07:32:00,19.0,17.0,29.92,SE,128,3.0,5.0,93,0.00,,,0.00,,2013-02-04 12:32:00,
2013-02-04 07:42:00,19.0,17.0,29.92,SE,128,3.0,5.0,93,0.00,,,0.00,,2013-02-04 12:42:00,
2013-02-04 07:53:00,19.0,17.0,29.92,SE,134,3.0,6.0,93,0.00,,,0.00,,2013-02-04 12:53:00,
2013-02-04 08:03:00,20.0,18.0,29.92,SE,126,3.0,6.0,93,0.00,,,0.00,,2013-02-04 13:03:00,
2013-02-04 08:12:00,20.0,18.0,29.92,ESE,111,3.0,5.0,93,0.00,,,0.00,,2013-02-04 13:12:00,
2013-02-04 08:22:00,20.0,18.0,29.92,ESE,111,3.0,5.0,93,0.00,,,0.00,,2013-02-04 13:22:00,
2013-02-04 08:33:00,20.0,18.0,29.92,ESE,107,2.0,5.0,93,0.00,,,0.00,,2013-02-04 13:33:00,
2013-02-04 08:42:00,20.0,18.0,29.92,ESE,107,2.0,5.0,93,0.00,,,0.00,,2013-02-04 13:42:00,
2013-02-04 08:52:00,20.0,18.0,29.92,ENE,78,3.0,4.0,93,0.00,,,0.00,,2013-02-04 13:52:00,
2013-02-04 09:03:00,21.0,19.0,29.92,East,81,2.0,5.0,93,0.00,,,0.00,,2013-02-04 14:03:00,
2013-02-04 09:12:00,21.0,19.0,29.92,East,81,2.0,5.0,93,0.00,,,0.00,,2013-02-04 14:12:00,
2013-02-04 09:22:00,21.0,19.0,29.92,East,80,4.0,5.0,92,0.00,,,0.00,,2013-02-04 14:22:00,
2013-02-04 09:33:00,21.0,19.0,29.92,East,94,4.0,8.0,92,0.00,,,0.00,,2013-02-04 14:33:00,
2013-02-04 09:42:00,21.0,19.0,29.92,East,94,4.0,8.0,92,0.00,,,0.00,,2013-02-04 14:42:00,
2013-02-04 09:52:00,21.0,19.0,29.91,East,82,5.0,8.0,92,0.00,,,0.00,,2013-02-04 14:52:00,
2013-02-04 10:03:00,22.0,20.0,29.90,ENE,78,5.0,8.0,92,0.00,,,0.00,,2013-02-04 15:03:00,
2013-02-04 10:12:00,22.0,20.0,29.90,ENE,78,5.0,8.0,92,0.00,,,0.00,,2013-02-04 15:12:00,
2013-02-04 10:23:00,22.0,20.0,29.89,SE,126,4.0,9.0,92,0.00,,,0.00,,2013-02-04 15:23:00,
2013-02-04 10:33:00,23.0,21.0,29.89,ESE,113,4.0,10.0,90,0.00,,,0.00,,2013-02-04 15:33:00,
2013-02-04 10:43:00,23.0,21.0,29.89,ESE,113,4.0,10.0,90,0.00,,,0.00,,2013-02-04 15:43:00,
2013-02-04 10:53:00,23.0,21.0,29.88,East,92,6.0,9.0,90,0.00,,,0.00,,2013-02-04 15:53:00,
2013-02-04 11:03:00,23.0,21.0,29.88,East,96,6.0,10.0,90,0.00,,,0.00,,2013-02-04 16:03:00,
2013-02-04 11:11:00,23.0,21.0,29.88,East,96,6.0,10.0,90,0.00,,,0.00,,2013-02-04 16:11:00,
2013-02-04 11:22:00,24.0,21.0,29.87,ENE,69,8.0,12.0,88,0.00,,,0.00,,2013-02-04 16:22:00,
2013-02-04 11:33:00,24.0,21.0,29.88,SE,133,6.0,8.0,88,0.00,,,0.00,,2013-02-04 16:33:00,
2013-02-04 11:43:00,24.0,21.0,29.88,SE,133,6.0,8.0,88,0.00,,,0.00,,2013-02-04 16:43:00,
2013-02-04 11:52:00,24.0,21.0,29.87,East,96,7.0,9.0,89,0.00,,,0.00,,2013-02-04 16:52:00,
2013-02-04 12:02:00,24.0,21.0,29.87,East,93,6.0,9.0,88,0.00,,,0.00,,2013-02-04 17:02:00,
2013-02-04 12:11:00,24.0,21.0,29.87,East,93,6.0,9.0,88,0.00,,,0.00,,2013-02-04 17:11:00,
2013-02-04 12:21:00,24.0,21.0,29.86,ESE,108,6.0,9.0,88,0.00,,,0.00,,2013-02-04 17:21:00,
2013-02-04 12:32:00,24.0,21.0,29.85,ESE,123,9.0,13.0,88,0.00,,,0.00,,2013-02-04 17:32:00,
2013-02-04 12:42:00,24.0,21.0,29.85,ESE,123,9.0,13.0,88,0.00,,,0.00,,2013-02-04 17:42:00,
2013-02-04 12:52:00,24.0,21.0,29.85,East,100,4.0,10.0,88,0.00,,,0.00,,2013-02-04 17:52:00,
2013-02-04 13:03:00,24.0,21.0,29.84,SE,126,8.0,9.0,87,0.00,,,0.00,,2013-02-04 18:03:00,
2013-02-04 13:11:00,24.0,21.0,29.84,SE,126,8.0,9.0,87,0.00,,,0.00,,2013-02-04 18:11:00,
2013-02-04 13:22:00,25.0,22.0,29.83,East,99,5.0,9.0,88,0.00,,,0.00,,2013-02-04 18:22:00,
2013-02-04 13:32:00,25.0,22.0,29.83,SE,137,7.0,10.0,87,0.00,,,0.00,,2013-02-04 18:32:00,
2013-02-04 13:42:00,25.0,22.0,29.83,SE,137,7.0,10.0,87,0.00,,,0.00,,2013-02-04 18:42:00,
2013-02-04 13:52:00,25.0,22.0,29.82,SE,133,6.0,10.0,87,0.00,,,0.00,,2013-02-04 18:52:00,
2013-02-04 14:02:00,25.0,22.0,29.82,ESE,107,7.0,11.0,87,0.00,,,0.00,,2013-02-04 19:02:00,
2013-02-04 14:11:00,25.0,22.0,29.82,ESE,107,7.0,11.0,87,0.00,,,0.00,,2013-02-04 19:11:00,
2013-02-04 14:22:00,25.0,22.0,29.82,ESE,119,4.0,8.0,88,0.00,,,0.00,,2013-02-04 19:22:00,
2013-02-04 14:32:00,25.0,22.0,29.82,ESE,103,3.0,7.0,88,0.00,,,0.00,,2013-02-04 19:32:00,
2013-02-04 14:42:00,25.0,22.0,29.82,ESE,103,3.0,7.0,88,0.00,,,0.00,,2013-02-04 19:42:00,
2013-02-04 14:52:00,25.0,22.0,29.82,SE,126,4.0,7.0,87,0.00,,,0.00,,2013-02-04 19:52:00,
2013-02-04 15:02:00,25.0,22.0,29.82,East,98,4.0,7.0,87,0.00,,,0.00,,2013-02-04 20:02:00,
2013-02-04 15:12:00,25.0,22.0,29.82,East,98,4.0,7.0,87,0.00,,,0.00,,2013-02-04 20:12:00,
2013-02-04 15:22:00,25.0,22.0,29.82,ESE,109,3.0,6.0,87,0.00,,,0.00,,2013-02-04 20:22:00,
2013-02-04 15:32:00,25.0,22.0,29.82,ESE,107,2.0,4.0,87,0.00,,,0.00,,2013-02-04 20:32:00,
2013-02-04 15:42:00,25.0,22.0,29.82,ESE,107,2.0,4.0,87,0.00,,,0.00,,2013-02-04 20:42:00,
2013-02-04 15:52:00,25.0,22.0,29.81,ESE,103,4.0,5.0,87,0.00,,,0.00,,2013-02-04 20:52:00,
2013-02-04 16:02:00,26.0,23.0,29.82,ESE,103,3.0,5.0,87,0.00,,,0.00,,2013-02-04 21:02:00,
2013-02-04 16:11:00,26.0,23.0,29.82,ESE,103,3.0,5.0,87,0.00,,,0.00,,2013-02-04 21:11:00,
2013-02-04 16:22:00,26.0,23.0,29.82,ENE,78,2.0,5.0,87,0.00,,,0.00,,2013-02-04 21:22:00,
2013-02-04 16:32:00,26.0,23.0,29.82,East,80,2.0,5.0,87,0.00,,,0.00,,2013-02-04 21:32:00,
2013-02-04 16:42:00,26.0,23.0,29.82,East,80,2.0,5.0,87,0.00,,,0.00,,2013-02-04 21:42:00,
2013-02-04 16:52:00,26.0,23.0,29.83,ENE,78,2.0,5.0,87,0.00,,,0.00,,2013-02-04 21:52:00,
2013-02-04 17:03:00,25.0,22.0,29.83,ENE,78,2.0,7.0,87,0.00,,,0.00,,2013-02-04 22:03:00,
2013-02-04 17:12:00,25.0,22.0,29.83,ENE,78,2.0,7.0,87,0.00,,,0.00,,2013-02-04 22:12:00,
2013-02-04 17:21:00,25.0,22.0,29.83,East,90,3.0,5.0,88,0.00,,,0.00,,2013-02-04 22:21:00,
2013-02-04 17:32:00,25.0,22.0,29.82,ENE,67,3.0,5.0,88,0.00,,,0.00,,2013-02-04 22:32:00,
2013-02-04 17:42:00,25.0,22.0,29.82,ENE,67,3.0,5.0,88,0.00,,,0.00,,2013-02-04 22:42:00,
2013-02-04 17:52:00,25.0,22.0,29.81,ENE,61,2.0,5.0,89,0.00,,,0.00,,2013-02-04 22:52:00,
2013-02-04 18:01:00,25.0,22.0,29.81,ENE,66,3.0,5.0,89,0.00,,,0.00,,2013-02-04 23:01:00,
2013-02-04 18:11:00,25.0,22.0,29.81,ENE,66,3.0,5.0,89,0.00,,,0.00,,2013-02-04 23:11:00,
2013-02-04 18:21:00,25.0,22.0,29.81,ENE,74,1.0,5.0,89,0.00,,,0.00,,2013-02-04 23:21:00,
2013-02-04 18:32:00,25.0,22.0,29.82,ENE,61,2.0,4.0,89,0.00,,,0.00,,2013-02-04 23:32:00,
2013-02-04 18:42:00,25.0,22.0,29.82,ENE,61,2.0,4.0,89,0.00,,,0.00,,2013-02-04 23:42:00,
2013-02-04 18:52:00,25.0,22.0,29.83,ENE,65,1.0,3.0,89,0.00,,,0.00,,2013-02-04 23:52:00,
2013-02-04 19:02:00,24.0,21.0,29.83,NE,51,1.0,3.0,89,0.00,,,0.00,,2013-02-05 00:02:00,
2013-02-04 19:11:00,24.0,21.0,29.83,NE,51,1.0,3.0,89,0.00,,,0.00,,2013-02-05 00:11:00,
2013-02-04 19:22:00,24.0,21.0,29.85,NNW,346,2.0,4.0,89,0.00,,,0.00,,2013-02-05 00:22:00,
2013-02-04 19:32:00,24.0,21.0,29.86,North,360,1.0,4.0,89,0.00,,,0.00,,2013-02-05 00:32:00,
2013-02-04 19:42:00,24.0,21.0,29.86,North,360,1.0,4.0,89,0.00,,,0.00,,2013-02-05 00:42:00,
2013-02-04 19:52:00,24.0,21.0,29.87,North,360,1.0,4.0,89,0.00,,,0.00,,2013-02-05 00:52:00,
2013-02-04 20:02:00,24.0,21.0,29.87,NW,323,3.0,5.0,89,0.00,,,0.00,,2013-02-05 01:02:00,
2013-02-04 20:12:00,24.0,21.0,29.87,NW,323,3.0,5.0,89,0.00,,,0.00,,2013-02-05 01:12:00,
2013-02-04 20:22:00,24.0,22.0,29.88,NNW,348,2.0,5.0,90,0.00,,,0.00,,2013-02-05 01:22:00,
2013-02-04 20:32:00,24.0,22.0,29.88,NW,324,3.0,5.0,90,0.00,,,0.00,,2013-02-05 01:32:00,
2013-02-04 20:42:00,24.0,22.0,29.88,NW,324,3.0,5.0,90,0.00,,,0.00,,2013-02-05 01:42:00,
2013-02-04 20:52:00,24.0,22.0,29.88,North,355,2.0,4.0,90,0.00,,,0.00,,2013-02-05 01:52:00,
2013-02-04 21:01:00,24.0,22.0,29.89,North,350,2.0,4.0,90,0.00,,,0.00,,2013-02-05 02:01:00,
2013-02-04 21:11:00,24.0,22.0,29.89,North,350,2.0,4.0,90,0.00,,,0.00,,2013-02-05 02:11:00,
2013-02-04 21:22:00,24.0,22.0,29.90,North,360,3.0,6.0,91,0.00,,,0.00,,2013-02-05 02:22:00,
2013-02-04 21:32:00,24.0,22.0,29.90,North,350,4.0,7.0,91,0.00,,,0.00,,2013-02-05 02:32:00,
2013-02-04 21:42:00,24.0,22.0,29.90,North,350,4.0,7.0,91,0.00,,,0.00,,2013-02-05 02:42:00,
2013-02-04 21:52:00,24.0,22.0,29.90,NNW,340,2.0,5.0,90,0.00,,,0.00,,2013-02-05 02:52:00,
2013-02-04 22:02:00,24.0,22.0,29.89,NNE,19,0.0,3.0,90,0.00,,,0.00,,2013-02-05 03:02:00,
2013-02-04 22:11:00,24.0,22.0,29.89,NNE,19,0.0,3.0,90,0.00,,,0.00,,2013-02-05 03:11:00,
2013-02-04 22:21:00,24.0,22.0,29.88,NNE,19,0.0,0.0,90,0.00,,,0.00,,2013-02-05 03:21:00,
2013-02-04 22:32:00,24.0,22.0,29.88,NNE,19,0.0,1.0,90,0.00,,,0.00,,2013-02-05 03:32:00,
2013-02-04 22:42:00,24.0,22.0,29.88,NNE,19,0.0,1.0,90,0.00,,,0.00,,2013-02-05 03:42:00,
2013-02-04 22:52:00,23.0,21.0,29.88,NNE,19,0.0,2.0,91,0.00,,,0.00,,2013-02-05 03:52:00,
2013-02-04 23:01:00,23.0,21.0,29.90,NW,313,1.0,4.0,91,0.00,,,0.00,,2013-02-05 04:01:00,
2013-02-04 23:11:00,23.0,21.0,29.90,NW,313,1.0,4.0,91,0.00,,,0.00,,2013-02-05 04:11:00,
2013-02-04 23:22:00,23.0,21.0,29.91,WNW,303,3.0,4.0,91,0.00,,,0.00,,2013-02-05 04:22:00,
2013-02-04 23:32:00,23.0,21.0,29.90,WNW,298,0.0,3.0,91,0.00,,,0.00,,2013-02-05 04:32:00,
2013-02-04 23:42:00,23.0,21.0,29.90,WNW,298,0.0,3.0,91,0.00,,,0.00,,2013-02-05 04:42:00,
2013-02-04 23:52:00,23.0,21.0,29.90,NW,318,4.0,5.0,91,0.00,,,0.00,,2013-02-05 04:52:00,